EZY262 EGAC-EGGD

Flight info

Callsign EZY262
Flight time 0h 47m
Altitude 33000
Route DUFFY L10 RINGA Q39 BABGU DCT ETIGA DCT INKOB Q39 NOMSU UQ4 WAL N862 KARNO/N0448F320 DCT ALHUP DCT LUCSA/N0405F230 N862 WEVBE
Aircraft A320/M-SDE3FGHIRWY/LB1

Departure

Time 2026-05-07 18:52
Airport George Best Belfast City Airport (EGAC)

Arrival

Time 2026-05-07 19:40
Airport Bristol Airport (EGGD)
Time Latitude Longitude Altitude Speed Heading
2026-05-07 18:30 54.61497 -5.87140 24 ft 0 kts 154°
2026-05-07 18:43 54.61513 -5.87154 26 ft 4 kts 149°
2026-05-07 18:44 54.61534 -5.87182 23 ft 4 kts 125°
2026-05-07 18:44 54.61541 -5.87210 24 ft 3 kts 44°
2026-05-07 18:44 54.61538 -5.87215 23 ft 0 kts 34°
2026-05-07 18:47 54.61599 -5.87143 24 ft 17 kts 34°
2026-05-07 18:47 54.61695 -5.87030 26 ft 16 kts 34°
2026-05-07 18:48 54.61765 -5.87012 23 ft 10 kts 321°
2026-05-07 18:48 54.61803 -5.87103 24 ft 9 kts 305°
2026-05-07 18:48 54.61843 -5.87171 25 ft 9 kts 338°
2026-05-07 18:48 54.61900 -5.87147 24 ft 8 kts 31°
2026-05-07 18:49 54.61964 -5.87072 23 ft 17 kts 34°
2026-05-07 18:49 54.62062 -5.86955 23 ft 16 kts 34°
2026-05-07 18:49 54.62154 -5.86845 23 ft 15 kts 35°
2026-05-07 18:49 54.62235 -5.86748 24 ft 13 kts 33°
2026-05-07 18:50 54.62323 -5.86643 24 ft 20 kts 36°
2026-05-07 18:50 54.62407 -5.86552 25 ft 11 kts 17°
2026-05-07 18:50 54.62467 -5.86540 24 ft 6 kts 27°
2026-05-07 18:50 54.62477 -5.86471 23 ft 6 kts 112°
2026-05-07 18:51 54.62445 -5.86463 23 ft 5 kts 214°
2026-05-07 18:51 54.62432 -5.86499 26 ft 2 kts 234°
2026-05-07 18:51 54.62411 -5.86532 26 ft 4 kts 213°
2026-05-07 18:51 54.62407 -5.86536 24 ft 0 kts 214°
2026-05-07 18:52 54.62147 -5.86844 23 ft 87 kts 214°
2026-05-07 18:52 54.61456 -5.87667 54 ft 147 kts 213°
2026-05-07 18:52 54.60643 -5.88669 738 ft 147 kts 212°
2026-05-07 18:53 54.59778 -5.89695 1412 ft 157 kts 212°
2026-05-07 18:53 54.58735 -5.90612 1806 ft 183 kts 193°
2026-05-07 18:53 54.57382 -5.90412 2232 ft 210 kts 167°
2026-05-07 18:53 54.55922 -5.89508 2800 ft 233 kts 163°
2026-05-07 18:54 54.54365 -5.88306 3415 ft 254 kts 157°
2026-05-07 18:54 54.52736 -5.86986 4320 ft 261 kts 158°
2026-05-07 18:54 54.51191 -5.85268 5272 ft 272 kts 136°
2026-05-07 18:54 54.50066 -5.82681 6288 ft 276 kts 128°
2026-05-07 18:55 54.48968 -5.79909 7261 ft 278 kts 127°
2026-05-07 18:55 54.47892 -5.77170 8198 ft 281 kts 127°
2026-05-07 18:55 54.46788 -5.74373 9102 ft 285 kts 128°
2026-05-07 18:55 54.45660 -5.71544 10045 ft 289 kts 129°
2026-05-07 18:56 54.44482 -5.68616 10511 ft 310 kts 128°
2026-05-07 18:56 54.43182 -5.65409 10806 ft 335 kts 128°
2026-05-07 18:56 54.41836 -5.62092 11291 ft 348 kts 128°
2026-05-07 18:56 54.40443 -5.58638 12017 ft 355 kts 128°
2026-05-07 18:57 54.39031 -5.55132 12792 ft 360 kts 128°
2026-05-07 18:57 54.37597 -5.51580 13552 ft 365 kts 128°
2026-05-07 18:57 54.36146 -5.47988 14260 ft 368 kts 128°
2026-05-07 18:57 54.34681 -5.44366 14961 ft 371 kts 128°
2026-05-07 18:58 54.33200 -5.40712 15645 ft 375 kts 128°
2026-05-07 18:58 54.31704 -5.37027 16320 ft 379 kts 128°
2026-05-07 18:58 54.30193 -5.33314 17011 ft 382 kts 128°
2026-05-07 18:58 54.28663 -5.29568 17698 ft 385 kts 128°
2026-05-07 18:59 54.27098 -5.25824 18356 ft 388 kts 130°
2026-05-07 18:59 54.25437 -5.22164 18934 ft 391 kts 132°
2026-05-07 18:59 54.23703 -5.18567 19520 ft 394 kts 134°
2026-05-07 18:59 54.21925 -5.14980 20105 ft 397 kts 134°
2026-05-07 19:00 54.20130 -5.11377 20684 ft 401 kts 134°
2026-05-07 19:00 54.18321 -5.07723 21249 ft 404 kts 134°
2026-05-07 19:00 54.16516 -5.04038 21796 ft 408 kts 133°
2026-05-07 19:00 54.14698 -5.00295 22338 ft 411 kts 133°
2026-05-07 19:01 54.12870 -4.96515 22839 ft 414 kts 133°
2026-05-07 19:01 54.11032 -4.92707 23357 ft 418 kts 133°
2026-05-07 19:01 54.09157 -4.88823 23809 ft 421 kts 133°
2026-05-07 19:01 54.07314 -4.85017 24232 ft 423 kts 133°
2026-05-07 19:02 54.05433 -4.81143 24642 ft 425 kts 133°
2026-05-07 19:02 54.03546 -4.77242 25049 ft 428 kts 132°
2026-05-07 19:02 54.01705 -4.73253 25432 ft 431 kts 131°
2026-05-07 19:02 53.99915 -4.69227 25808 ft 434 kts 130°
2026-05-07 19:03 53.98089 -4.65043 26226 ft 436 kts 130°
2026-05-07 19:03 53.96307 -4.60957 26601 ft 438 kts 130°
2026-05-07 19:03 53.94479 -4.56798 26968 ft 440 kts 130°
2026-05-07 19:03 53.92635 -4.52645 27328 ft 442 kts 130°
2026-05-07 19:04 53.90766 -4.48471 27684 ft 444 kts 130°
2026-05-07 19:04 53.88885 -4.44302 28012 ft 446 kts 130°
2026-05-07 19:04 53.86993 -4.40124 28342 ft 448 kts 130°
2026-05-07 19:04 53.84918 -4.36202 28669 ft 446 kts 140°
2026-05-07 19:05 53.82628 -4.32550 28975 ft 448 kts 140°
2026-05-07 19:05 53.80377 -4.28996 29276 ft 449 kts 140°
2026-05-07 19:05 53.78078 -4.25387 29569 ft 451 kts 140°
2026-05-07 19:05 53.75772 -4.21782 29843 ft 453 kts 140°
2026-05-07 19:06 53.73454 -4.18155 30091 ft 455 kts 140°
2026-05-07 19:06 53.68820 -4.10896 30664 ft 453 kts 140°
2026-05-07 19:06 53.66516 -4.07286 30934 ft 453 kts 140°
2026-05-07 19:07 53.64202 -4.03672 31179 ft 453 kts 140°
2026-05-07 19:07 53.61921 -4.00113 31460 ft 453 kts 140°
2026-05-07 19:07 53.59579 -3.96466 31756 ft 453 kts 140°
2026-05-07 19:07 53.57263 -3.92867 32071 ft 452 kts 140°
2026-05-07 19:08 53.54957 -3.89284 32357 ft 452 kts 140°
2026-05-07 19:08 53.52647 -3.85700 32653 ft 451 kts 140°
2026-05-07 19:08 53.50341 -3.82128 32931 ft 451 kts 140°
2026-05-07 19:08 53.48037 -3.78569 33008 ft 449 kts 140°
2026-05-07 19:09 53.43446 -3.71506 33005 ft 447 kts 141°
2026-05-07 19:09 53.38864 -3.64468 33006 ft 447 kts 140°
2026-05-07 19:10 53.34283 -3.57438 32999 ft 447 kts 140°
2026-05-07 19:10 53.29696 -3.50433 33008 ft 446 kts 140°
2026-05-07 19:11 53.25134 -3.43482 33015 ft 446 kts 140°
2026-05-07 19:11 53.20549 -3.36512 33014 ft 446 kts 140°
2026-05-07 19:12 53.15945 -3.29550 32823 ft 448 kts 141°
2026-05-07 19:12 53.13630 -3.26063 32553 ft 449 kts 141°
2026-05-07 19:12 53.11314 -3.22581 32286 ft 449 kts 141°
2026-05-07 19:13 53.08997 -3.19096 32024 ft 450 kts 141°
2026-05-07 19:13 53.06676 -3.15603 31760 ft 450 kts 141°
2026-05-07 19:13 53.04357 -3.12112 31508 ft 451 kts 141°
2026-05-07 19:13 53.02026 -3.08610 31246 ft 451 kts 141°
2026-05-07 19:14 52.99697 -3.05124 30998 ft 452 kts 141°
2026-05-07 19:14 52.97358 -3.01634 30732 ft 452 kts 140°
2026-05-07 19:14 52.95005 -2.98166 30466 ft 453 kts 143°
2026-05-07 19:14 52.92424 -2.95213 30219 ft 451 kts 153°
2026-05-07 19:15 52.89574 -2.93081 29944 ft 448 kts 163°
2026-05-07 19:15 52.86564 -2.91839 29650 ft 445 kts 174°
2026-05-07 19:15 52.83487 -2.91488 29350 ft 443 kts 184°
2026-05-07 19:15 52.80428 -2.91973 29098 ft 442 kts 190°
2026-05-07 19:16 52.77381 -2.92682 28807 ft 443 kts 190°
2026-05-07 19:16 52.74332 -2.93387 28526 ft 443 kts 190°
2026-05-07 19:16 52.71273 -2.94068 28240 ft 443 kts 187°
2026-05-07 19:16 52.68193 -2.94366 27967 ft 443 kts 185°
2026-05-07 19:17 52.65127 -2.94614 27688 ft 441 kts 185°
2026-05-07 19:17 52.62077 -2.94862 26935 ft 436 kts 185°
2026-05-07 19:17 52.59072 -2.95108 26191 ft 430 kts 185°
2026-05-07 19:17 52.56099 -2.95354 25457 ft 426 kts 185°
2026-05-07 19:18 52.53150 -2.95603 24738 ft 422 kts 185°
2026-05-07 19:18 52.50232 -2.95848 24032 ft 419 kts 185°
2026-05-07 19:18 52.47329 -2.96088 23281 ft 415 kts 185°
2026-05-07 19:18 52.44460 -2.96324 22583 ft 410 kts 185°
2026-05-07 19:19 52.41633 -2.96558 21942 ft 405 kts 185°
2026-05-07 19:19 52.38832 -2.96789 21333 ft 400 kts 184°
2026-05-07 19:19 52.36063 -2.97016 20732 ft 396 kts 184°
2026-05-07 19:19 52.33328 -2.97238 20178 ft 392 kts 184°
2026-05-07 19:20 52.30652 -2.97454 19625 ft 388 kts 184°
2026-05-07 19:20 52.27965 -2.97669 19089 ft 385 kts 184°
2026-05-07 19:20 52.25307 -2.97886 18578 ft 381 kts 184°
2026-05-07 19:20 52.22668 -2.98103 18026 ft 377 kts 184°
2026-05-07 19:21 52.20066 -2.98318 17503 ft 372 kts 184°
2026-05-07 19:21 52.17494 -2.98528 16998 ft 368 kts 184°
2026-05-07 19:21 52.14952 -2.98734 16477 ft 364 kts 184°
2026-05-07 19:21 52.12433 -2.98937 15961 ft 361 kts 184°
2026-05-07 19:22 52.09906 -2.99142 15802 ft 368 kts 184°
2026-05-07 19:22 52.07336 -2.99352 15720 ft 371 kts 184°
2026-05-07 19:22 52.04756 -2.99563 15578 ft 371 kts 184°
2026-05-07 19:22 52.02178 -2.99774 15439 ft 371 kts 184°
2026-05-07 19:23 51.99602 -2.99986 15287 ft 370 kts 184°
2026-05-07 19:23 51.97037 -3.00151 15149 ft 370 kts 180°
2026-05-07 19:23 51.94476 -2.99699 14985 ft 371 kts 170°
2026-05-07 19:23 51.91995 -2.98506 14262 ft 375 kts 161°
2026-05-07 19:24 51.89554 -2.97016 13599 ft 374 kts 161°
2026-05-07 19:24 51.87128 -2.95545 12959 ft 371 kts 161°
2026-05-07 19:24 51.84723 -2.94100 12395 ft 366 kts 161°
2026-05-07 19:24 51.82390 -2.92702 12250 ft 349 kts 161°
2026-05-07 19:25 51.80154 -2.91370 12115 ft 335 kts 161°
2026-05-07 19:25 51.78017 -2.90103 11983 ft 320 kts 161°
2026-05-07 19:25 51.75970 -2.88889 11850 ft 308 kts 162°
2026-05-07 19:25 51.73995 -2.87719 11708 ft 296 kts 162°
2026-05-07 19:26 51.72077 -2.86580 11432 ft 291 kts 162°
2026-05-07 19:26 51.70162 -2.85595 11176 ft 287 kts 167°
2026-05-07 19:26 51.68242 -2.84762 10922 ft 286 kts 167°
2026-05-07 19:26 51.66325 -2.83931 10677 ft 285 kts 167°
2026-05-07 19:27 51.64415 -2.83102 10425 ft 284 kts 167°
2026-05-07 19:27 51.62515 -2.82278 10239 ft 283 kts 167°
2026-05-07 19:27 51.60615 -2.81452 9981 ft 283 kts 166°
2026-05-07 19:27 51.58746 -2.80640 9662 ft 281 kts 166°
2026-05-07 19:28 51.56865 -2.79822 9352 ft 279 kts 166°
2026-05-07 19:28 51.54995 -2.79011 9065 ft 278 kts 166°
2026-05-07 19:28 51.53132 -2.78206 8765 ft 276 kts 166°
2026-05-07 19:28 51.51280 -2.77406 8489 ft 274 kts 166°
2026-05-07 19:29 51.49440 -2.76615 8201 ft 273 kts 166°
2026-05-07 19:29 51.47608 -2.75828 7916 ft 272 kts 166°
2026-05-07 19:29 51.45780 -2.75043 7632 ft 271 kts 166°
2026-05-07 19:29 51.43967 -2.74263 7353 ft 269 kts 166°
2026-05-07 19:30 51.42193 -2.73497 7185 ft 257 kts 166°
2026-05-07 19:30 51.40517 -2.72703 7056 ft 245 kts 157°
2026-05-07 19:30 51.39553 -2.71740 6895 ft 241 kts 139°
2026-05-07 19:30 51.38623 -2.69638 6901 ft 239 kts 115°
2026-05-07 19:31 51.38326 -2.66941 6366 ft 246 kts 87°
2026-05-07 19:31 51.38466 -2.64229 5780 ft 243 kts 86°
2026-05-07 19:31 51.38594 -2.61583 5222 ft 241 kts 87°
2026-05-07 19:31 51.38715 -2.58914 4624 ft 240 kts 88°
2026-05-07 19:32 51.38831 -2.56247 4079 ft 235 kts 88°
2026-05-07 19:32 51.38942 -2.53691 3716 ft 225 kts 88°
2026-05-07 19:32 51.39047 -2.51266 3536 ft 214 kts 88°
2026-05-07 19:32 51.39149 -2.48905 3421 ft 212 kts 88°
2026-05-07 19:33 51.39251 -2.46564 3370 ft 206 kts 88°
2026-05-07 19:33 51.39350 -2.44335 3297 ft 196 kts 88°
2026-05-07 19:33 51.39446 -2.42175 3248 ft 193 kts 88°
2026-05-07 19:33 51.39688 -2.40078 3194 ft 194 kts 66°
2026-05-07 19:34 51.40572 -2.38455 3133 ft 197 kts 31°
2026-05-07 19:34 51.41873 -2.37869 3078 ft 198 kts 357°
2026-05-07 19:34 51.43169 -2.38526 3021 ft 197 kts 322°
2026-05-07 19:34 51.44019 -2.40185 2981 ft 193 kts 289°
2026-05-07 19:35 51.44186 -2.42189 2951 ft 174 kts 258°
2026-05-07 19:35 51.43767 -2.43879 2864 ft 156 kts 231°
2026-05-07 19:35 51.43141 -2.45177 2806 ft 142 kts 229°
2026-05-07 19:35 51.42544 -2.46414 2783 ft 138 kts 229°
2026-05-07 19:36 51.41958 -2.47630 2736 ft 137 kts 230°
2026-05-07 19:36 51.41374 -2.48840 2716 ft 137 kts 229°
2026-05-07 19:36 51.40804 -2.50025 2634 ft 136 kts 229°
2026-05-07 19:36 51.40230 -2.51218 2577 ft 135 kts 229°
2026-05-07 19:37 51.39658 -2.52404 2519 ft 135 kts 229°
2026-05-07 19:37 51.39134 -2.53649 2509 ft 136 kts 242°
2026-05-07 19:37 51.38901 -2.55132 2505 ft 140 kts 264°
2026-05-07 19:37 51.38854 -2.56732 2529 ft 155 kts 263°
2026-05-07 19:38 51.38782 -2.58523 2343 ft 164 kts 263°
2026-05-07 19:38 51.38710 -2.60344 1980 ft 164 kts 264°
2026-05-07 19:38 51.38640 -2.62156 1722 ft 160 kts 263°
2026-05-07 19:38 51.38576 -2.63866 1489 ft 148 kts 263°
2026-05-07 19:39 51.38515 -2.65466 1284 ft 142 kts 264°
2026-05-07 19:39 51.38455 -2.67027 1094 ft 140 kts 266°
2026-05-07 19:39 51.38396 -2.68574 907 ft 138 kts 268°
2026-05-07 19:39 51.38337 -2.70113 719 ft 139 kts 268°
2026-05-07 19:40 51.38286 -2.71592 609 ft 111 kts 264°
2026-05-07 19:40 51.38251 -2.72338 634 ft 30 kts 266°
2026-05-07 19:40 51.38235 -2.72680 631 ft 32 kts 266°
2026-05-07 19:40 51.38222 -2.73040 627 ft 33 kts 266°
2026-05-07 19:41 51.38251 -2.73341 622 ft 25 kts 332°
2026-05-07 19:41 51.38365 -2.73300 625 ft 16 kts 47°
2026-05-07 19:41 51.38390 -2.73127 612 ft 11 kts 87°
2026-05-07 19:41 51.38395 -2.72973 604 ft 16 kts 85°
2026-05-07 19:42 51.38404 -2.72797 617 ft 16 kts 85°
2026-05-07 19:42 51.38413 -2.72612 616 ft 17 kts 85°
2026-05-07 19:42 51.38421 -2.72417 611 ft 19 kts 88°
2026-05-07 19:42 51.38427 -2.72220 614 ft 17 kts 86°
2026-05-07 19:43 51.38433 -2.72024 606 ft 16 kts 87°
2026-05-07 19:43 51.38435 -2.71839 606 ft 18 kts 88°
2026-05-07 19:43 51.38440 -2.71659 607 ft 16 kts 88°
2026-05-07 19:43 51.38443 -2.71617 607 ft 1 kts 70°
2026-05-07 19:44 51.38484 -2.71602 623 ft 6 kts 350°
2026-05-07 19:44 51.38502 -2.71606 627 ft 2 kts 353°
2026-05-07 19:44 51.38518 -2.71608 612 ft 2 kts 356°
2026-05-07 19:44 51.38527 -2.71609 622 ft 1 kts 358°
2026-05-07 19:45 51.38534 -2.71609 612 ft 2 kts 358°
2026-05-07 19:45 51.38540 -2.71609 612 ft 0 kts 359°
2026-05-07 20:10 51.38537 -2.71609 612 ft 3 kts 359°
2026-05-07 20:11 51.38511 -2.71608 629 ft 4 kts 356°
2026-05-07 20:11 51.38484 -2.71604 621 ft 4 kts 355°
2026-05-07 20:11 51.38462 -2.71602 618 ft 4 kts
2026-05-07 20:11 51.38442 -2.71615 624 ft 4 kts 68°
2026-05-07 20:12 51.38438 -2.71649 607 ft 1 kts 86°
2026-05-07 20:12 51.38438 -2.71650 607 ft 1 kts 86°
2026-05-07 20:15 51.38439 -2.71623 623 ft 11 kts 86°
2026-05-07 20:15 51.38448 -2.71432 619 ft 18 kts 85°
2026-05-07 20:16 51.38455 -2.71239 623 ft 17 kts 86°
2026-05-07 20:16 51.38461 -2.71069 622 ft 10 kts 86°
2026-05-07 20:16 51.38465 -2.70961 614 ft 10 kts 86°
2026-05-07 20:16 51.38470 -2.70837 613 ft 13 kts 86°
2026-05-07 20:17 51.38477 -2.70649 615 ft 15 kts 86°
2026-05-07 20:17 51.38470 -2.70554 610 ft 6 kts 120°
2026-05-07 20:17 51.38430 -2.70512 616 ft 9 kts 160°
2026-05-07 20:17 51.38376 -2.70490 611 ft 6 kts 169°
2026-05-07 20:18 51.38329 -2.70511 617 ft 11 kts 226°
2026-05-07 20:18 51.38317 -2.70634 622 ft 18 kts 267°
2026-05-07 20:18 51.38290 -2.71286 614 ft 99 kts 266°
2026-05-07 20:18 51.38243 -2.72732 638 ft 160 kts 268°
2026-05-07 20:19 51.38192 -2.74516 1285 ft 161 kts 264°
2026-05-07 20:19 51.38124 -2.76334 1899 ft 170 kts 263°
2026-05-07 20:19 51.38032 -2.78367 2122 ft 194 kts 263°
2026-05-07 20:19 51.37931 -2.80658 2399 ft 218 kts 264°
2026-05-07 20:20 51.37848 -2.83195 2862 ft 236 kts 265°
2026-05-07 20:20 51.37789 -2.85847 3637 ft 242 kts 271°
2026-05-07 20:20 51.38301 -2.88422 4429 ft 250 kts 304°
2026-05-07 20:20 51.39646 -2.90188 5244 ft 255 kts 339°
2026-05-07 20:21 51.41410 -2.90516 5816 ft 261 kts 12°
2026-05-07 20:21 51.42536 -2.89812 5939 ft 257 kts 37°
2026-05-07 20:21 51.43629 -2.87645 5993 ft 251 kts 73°
2026-05-07 20:21 51.43875 -2.84915 6003 ft 249 kts 90°
2026-05-07 20:22 51.43938 -2.82136 6002 ft 249 kts 90°
2026-05-07 20:22 51.44005 -2.79358 6009 ft 249 kts 89°
2026-05-07 20:22 51.44202 -2.76550 6012 ft 265 kts 75°
2026-05-07 20:22 51.45080 -2.73917 6010 ft 273 kts 49°
2026-05-07 20:23 51.46524 -2.71980 6008 ft 276 kts 37°